User: anonymous   Login
Location: Unspecified
(0.0000°N, 0.0000°E)
Time: 18:04:36
(UTC+01:00)
Language:

Cosmos 1300 - Orbit

View from above orbital plane
View from above orbital plane
View from above satellite
View from above satellite

Ground track
Ground track

The orbit data is extracted from the following two-line orbital elements,

1 12785U 81082A   17344.87589753 +.00000501 +00000-0 +23799-4 0  9993
2 12785 082.5050 258.5787 0001995 048.6136 017.9748 15.16973700978390
Epoch (UTC): 10 December 2017 21:01:17
Eccentricity: 0.0001995
inclination: 82.5050°
perigee height: 513 km
apogee height: 516 km
right ascension of ascending node: 258.5787°
argument of perigee: 48.6136°
revolutions per day: 15.16973700
mean anomaly at epoch: 17.9748°
orbit number at epoch: 97839

The dashed part of the orbit path shows where the satellite is in the earth's shadow,  

DLR